Prescott, AZ

4:23 AM MST on January 24, 2017 (GMT -0700)
Love

Weather History for KPRC - July, 2012

Change the Weather History Date:

Sunday, July 1, 2012

  Actual Average Record
Temperature  
Mean Temperature 80 °F 75 °F  
Max Temperature 93 °F 90 °F 100 °F (1996)
Min Temperature 66 °F 60 °F 48 °F (2004)
Degree Days  
Heating Degree Days 0    
Month to date heating degree days  
Since 1 July heating degree days  
Cooling Degree Days 14    
Month to date cooling degree days  
Year to date cooling degree days  
Growing Degree Days 30 (Base 50)    
Moisture  
Dew Point 28 °F    
Average Humidity 15    
Maximum Humidity 30    
Minimum Humidity 8    
Precipitation  
Precipitation 0.00 in 0.04 in 1.28 in (1990)
Month to date precipitation 0.04  
Year to date precipitation 4.97  
Sea Level Pressure  
Sea Level Pressure 29.75 in    
Wind  
Wind Speed 9 mph (SSW)    
Max Wind Speed 20 mph    
Max Gust Speed 26 mph    
Visibility 10 miles    
Events      
T = Trace of Precipitation, MM = Missing Value Source: NWS Daily Summary

Daily Weather History Graph

Daily Weather History Graph

Search for Another Location

Airport or City:

Trip Planner

Search our weather history database for the weather conditions in past years. The results will help you decide how hot, cold, wet, or windy it might be!

Date:

Astronomy

Jul. 01, 2012 Rise Set
Actual Time 5:20 AM MST 7:46 PM MST
Civil Twilight 4:51 AM MST 8:16 PM MST
Nautical Twilight 4:14 AM MST 8:52 PM MST
Astronomical Twilight 3:35 AM MST 9:31 PM MST
Moon 5:54 PM MST (7/1) 3:10 AM MST (7/1)
Length of Visible Light 15h 24m
Length of Day
14h 26m
Waxing Gibbous, 94% of the Moon is Illuminated
Jul 1
Waxing Gibbous
Jul 3
Full
Jul 10
Last Quarter
Jul 18
New
Jul 26
First Quarter

Hourly Weather History & Observations

Time (MST) Temp. Dew Point Humidity Pressure Visibility Wind Dir Wind Speed Gust Speed Precip Events Conditions
12:53 AM 73.9 °F 28.9 °F 19% 29.72 in 10.0 mi South 8.1 mph - N/A   Clear
1:53 AM 72.0 °F 30.9 °F 22% 29.72 in 10.0 mi South 8.1 mph - N/A   Clear
2:53 AM 66.9 °F 34.0 °F 30% 29.72 in 10.0 mi South 4.6 mph - N/A   Clear
3:53 AM 68.0 °F 30.9 °F 25% 29.72 in 10.0 mi SW 6.9 mph - N/A   Clear
4:53 AM 66.2 °F 33.8 °F 30% 30.02 in 10.0 mi SSW 6.9 mph - N/A   Clear
5:53 AM 70.0 °F 33.1 °F 26% 29.74 in 10.0 mi South 6.9 mph - N/A   Clear
6:53 AM 75.9 °F 32.0 °F 20% 29.75 in 10.0 mi Calm Calm - N/A   Clear
7:53 AM 82.0 °F 30.0 °F 15% 29.76 in 10.0 mi SSE 3.5 mph - N/A   Clear
8:53 AM 87.1 °F 24.1 °F 10% 29.76 in 10.0 mi South 10.4 mph - N/A   Clear
9:53 AM 88.0 °F 24.1 °F 10% 29.78 in 10.0 mi South 11.5 mph - N/A   Clear
10:53 AM 90.0 °F 28.9 °F 11% 29.77 in 10.0 mi South 12.7 mph 19.6 mph N/A   Clear
11:53 AM 91.0 °F 30.0 °F 11% 29.76 in 10.0 mi SSW 13.8 mph 25.3 mph N/A   Clear
12:53 PM 93.9 °F 28.0 °F 10% 29.74 in 10.0 mi SW 19.6 mph 26.5 mph N/A   Clear
1:53 PM 93.0 °F 28.0 °F 10% 29.72 in 10.0 mi SW 16.1 mph 21.9 mph N/A   Clear
2:53 PM 93.0 °F 24.1 °F 8% 29.72 in 10.0 mi South 13.8 mph 21.9 mph N/A   Clear
3:53 PM 91.4 °F 24.8 °F 9% 30.00 in 10.0 mi SW 16.1 mph 23.0 mph N/A   Overcast
4:53 PM 90.0 °F 24.1 °F 9% 29.71 in 10.0 mi SW 11.5 mph 23.0 mph N/A   Clear
5:53 PM 88.0 °F 23.0 °F 9% 29.70 in 10.0 mi WSW 11.5 mph - N/A   Clear
6:53 PM 88.0 °F 25.0 °F 10% 29.68 in 10.0 mi SSW 9.2 mph - N/A   Mostly Cloudy
7:53 PM 84.9 °F 24.1 °F 11% 29.69 in 10.0 mi SW 8.1 mph - N/A   Scattered Clouds
8:53 PM 82.0 °F 26.1 °F 13% 29.70 in 10.0 mi SW 9.2 mph - N/A   Partly Cloudy
9:53 PM 79.0 °F 27.0 °F 15% 29.72 in 10.0 mi SSW 6.9 mph - N/A   Clear
10:53 PM 79.0 °F 27.0 °F 15% 29.71 in 10.0 mi SSW 8.1 mph - N/A   Clear
11:53 PM 75.9 °F 26.1 °F 16% 29.73 in 10.0 mi SSW 6.9 mph - N/A   Clear